Temperature
-3 -3 -3 -3 -3 -3 -3 -2 -2 -2 -2 -1 -1 -1 -0 -0 -0 0 0 0 0 1 1 1 1 1 1 2 2 2 3 3 3 3 3 4 4 4 4 5 5 5 5
-4 -4 -4 -4 -4 -4 -3 -3 -3 -3 -2 -2 -2 -1 -1 -1 -1 -1 -0 -0 -0 0 0 0 0 0 1 1 1 2 2 2 2 2 3 3 3 3 4 4 4 4 4
-4 -4 -4 -4 -4 -4 -4 -4 -4 -3 -3 -3 -2 -2 -2 -1 -1 -1 -1 -1 -1 -0 -0 -0 -0 -0 0 0 1 1 1 1 2 2 2 2 3 3 3 3 3 3 4
-5 -5 -5 -5 -5 -5 -4 -4 -4 -4 -4 -3 -3 -3 -2 -2 -2 -2 -1 -1 -1 -1 -1 -1 -0 -0 -0 -0 0 0 0 1 1 1 1 2 2 2 2 2 2 3 3
-5 -5 -5 -5 -5 -5 -5 -5 -5 -5 -4 -4 -4 -4 -3 -3 -2 -2 -2 -2 -1 -1 -1 -1 -1 -1 -1 -0 -0 -0 0 0 0 1 1 1 1 1 2 2 2 2 2
-6 -6 -6 -6 -6 -6 -6 -6 -5 -5 -5 -5 -5 -4 -4 -3 -3 -3 -2 -2 -2 -2 -1 -1 -1 -1 -1 -1 -1 -0 -0 -0 0 0 0 1 1 1 1 1 1 1 1
-6 -6 -6 -6 -6 -6 -6 -6 -6 -6 -6 -5 -5 -5 -5 -4 -4 -3 -3 -3 -3 -2 -2 -2 -2 -2 -1 -1 -1 -1 -1 -1 -0 -0 0 0 1 1 1 1 1 1 1
-7 -7 -7 -7 -7 -7 -7 -6 -6 -6 -6 -6 -6 -5 -5 -5 -4 -4 -4 -3 -3 -3 -2 -2 -2 -2 -2 -2 -2 -1 -1 -1 -1 -1 -0 -0 0 0 0 1 1 1 0
-7 -7 -7 -7 -7 -7 -7 -7 -7 -7 -7 -7 -6 -6 -6 -5 -5 -5 -4 -4 -4 -3 -3 -3 -3 -3 -2 -2 -2 -2 -2 -1 -1 -1 -1 -1 -1 -0 -0 -0 -0 -0 -0
-8 -8 -8 -8 -8 -8 -8 -8 -7 -7 -7 -7 -7 -7 -6 -6 -5 -5 -5 -5 -5 -4 -4 -3 -3 -3 -3 -2 -2 -2 -2 -2 -2 -2 -1 -1 -1 -1 -1 -1 -0 -0 -1
-8 -8 -8 -8 -8 -8 -8 -8 -8 -8 -8 -8 -7 -7 -7 -7 -6 -6 -6 -5 -5 -5 -4 -4 -4 -3 -3 -3 -3 -3 -2 -2 -2 -2 -2 -2 -2 -1 -1 -1 -1 -1 -1
-9 -8 -8 -8 -9 -9 -9 -8 -8 -9 -9 -8 -8 -8 -7 -7 -7 -6 -6 -6 -5 -5 -5 -5 -4 -4 -4 -3 -3 -3 -3 -3 -3 -3 -2 -2 -2 -2 -2 -2 -1 -1 -1
-9 -9 -9 -9 -9 -9 -9 -9 -9 -9 -9 -9 -9 -9 -8 -8 -7 -7 -7 -6 -6 -6 -5 -5 -5 -4 -4 -4 -4 -3 -3 -3 -3 -3 -3 -3 -2 -2 -2 -2 -2 -2 -2
-10 -10 -10 -10 -9 -9 -10 -10 -10 -10 -10 -10 -9 -9 -9 -8 -8 -8 -7 -7 -6 -6 -6 -5 -5 -5 -5 -4 -4 -4 -4 -4 -4 -3 -3 -3 -3 -3 -3 -2 -2 -2 -2
-10 -10 -10 -10 -10 -10 -10 -10 -10 -10 -10 -10 -10 -10 -9 -9 -8 -8 -8 -7 -7 -6 -6 -6 -6 -6 -5 -5 -5 -5 -5 -4 -4 -4 -4 -4 -3 -3 -3 -3 -3 -3 -3
-11 -11 -11 -11 -11 -11 -11 -10 -10 -10 -10 -10 -10 -10 -9 -9 -8 -8 -8 -7 -7 -7 -7 -6 -6 -6 -6 -6 -6 -5 -5 -5 -5 -5 -5 -4 -4 -4 -4 -3 -3 -3 -3
-11 -11 -11 -11 -11 -11 -11 -11 -11 -10 -10 -10 -10 -10 -9 -9 -8 -8 -8 -8 -7 -7 -7 -7 -7 -7 -7 -6 -6 -6 -6 -5 -5 -5 -5 -5 -5 -4 -4 -4 -4 -4 -4
-12 -11 -12 -12 -12 -12 -12 -12 -12 -12 -11 -10 -10 -10 -10 -9 -9 -9 -9 -8 -8 -7 -7 -7 -7 -7 -7 -7 -7 -6 -6 -6 -6 -6 -5 -5 -5 -5 -5 -4 -4 -4 -4
-12 -12 -12 -12 -12 -12 -12 -12 -12 -12 -12 -11 -11 -10 -10 -10 -9 -9 -9 -9 -8 -8 -8 -8 -8 -8 -7 -7 -7 -7 -6 -6 -6 -6 -6 -6 -6 -5 -5 -5 -5 -5 -5
-12 -12 -12 -12 -12 -12 -12 -12 -12 -12 -12 -12 -11 -11 -11 -10 -10 -10 -10 -9 -9 -9 -9 -8 -8 -8 -8 -8 -7 -7 -7 -7 -7 -6 -6 -6 -6 -6 -6 -5 -5 -5 -5
-13 -13 -13 -13 -13 -13 -12 -12 -12 -12 -12 -12 -12 -11 -11 -11 -11 -11 -10 -10 -10 -10 -9 -9 -9 -9 -8 -8 -8 -8 -7 -7 -7 -7 -7 -6 -6 -6 -6 -6 -6 -6 -6
-13 -13 -13 -13 -13 -13 -13 -13 -13 -13 -12 -12 -12 -12 -12 -12 -11 -11 -11 -10 -10 -10 -10 -9 -9 -9 -9 -9 -8 -8 -8 -8 -7 -7 -7 -7 -7 -7 -7 -6 -6 -6 -6
-14 -14 -13 -13 -13 -13 -13 -13 -13 -13 -13 -13 -12 -12 -12 -12 -12 -11 -11 -11 -11 -10 -10 -10 -9 -9 -9 -9 -9 -8 -8 -8 -8 -8 -7 -7 -7 -7 -7 -7 -7 -7 -7
-14 -14 -14 -14 -14 -14 -14 -13 -13 -13 -13 -13 -13 -13 -13 -13 -12 -12 -11 -11 -11 -11 -10 -10 -10 -10 -9 -9 -9 -9 -8 -8 -8 -8 -8 -7 -7 -7 -7 -7 -7 -7 -7
-14 -14 -14 -14 -14 -14 -14 -14 -14 -14 -13 -13 -13 -13 -13 -13 -12 -12 -12 -12 -11 -11 -11 -11 -10 -10 -10 -9 -9 -9 -9 -8 -8 -8 -8 -8 -8 -8 -7 -7 -7 -7 -7
-14 -14 -14 -14 -14 -14 -14 -14 -14 -14 -14 -14 -13 -13 -13 -13 -13 -12 -12 -12 -12 -11 -11 -11 -11 -10 -10 -10 -9 -9 -9 -9 -9 -8 -8 -8 -8 -8 -8 -8 -8 -8 -8
Wind_Speed
6 6 6 6 6 6 6 7 7 7 8 8 8 7 7 6 5 5 5 5 6 6 5 6 6 5 4 4 3 3 4 3 5 4 3 2 3 3 3 4 4 4 4
6 6 6 7 7 7 7 7 8 8 8 9 9 8 7 7 6 6 6 6 7 7 7 6 7 5 5 5 4 5 4 4 4 5 4 3 4 4 3 3 3 4 4
5 6 7 7 7 7 8 8 8 8 8 9 8 8 7 7 6 6 7 7 8 8 7 7 7 7 7 5 5 5 4 5 4 4 4 3 3 3 3 2 3 2 3
6 6 6 7 7 8 8 7 8 8 8 8 8 8 7 7 7 7 7 7 7 8 7 7 7 8 8 7 6 6 5 5 4 5 4 3 3 3 3 3 3 2 2
6 6 7 7 8 7 7 7 8 8 9 9 7 7 7 7 7 7 6 7 7 7 7 7 8 9 10 9 7 6 6 5 5 5 5 3 3 3 4 3 4 2 3
6 6 7 7 7 7 8 8 8 9 9 8 7 7 8 8 12 13 9 6 6 6 7 7 7 8 10 11 11 10 9 8 7 6 5 6 6 4 4 4 3 3 4
7 7 7 8 8 8 9 9 8 8 8 8 7 7 8 9 14 13 12 8 6 6 7 7 7 7 9 7 9 10 10 11 11 8 8 8 7 6 6 6 5 5 4
7 8 8 8 9 9 8 8 8 7 7 7 8 8 8 10 14 14 13 7 6 6 6 7 8 7 8 8 8 8 8 8 9 8 8 8 8 7 7 7 6 4 2
8 8 8 8 9 9 9 8 7 7 8 8 8 7 8 9 14 14 13 6 5 6 7 7 8 8 10 10 8 8 7 7 9 10 10 10 10 10 8 4 4 4 4
9 9 9 9 9 9 9 8 7 7 8 8 9 7 8 8 13 14 13 5 5 6 6 6 9 9 11 11 8 7 8 7 6 6 7 8 7 8 10 8 7 6 4
10 10 9 9 8 9 8 8 7 8 8 8 9 8 7 9 12 14 13 6 5 6 6 5 6 10 10 10 9 7 9 8 6 6 5 5 5 5 6 6 6 6 6
10 10 10 9 8 8 8 8 8 7 8 8 8 8 6 7 10 12 13 11 9 7 6 5 6 10 10 10 8 8 9 7 4 4 5 4 5 4 4 4 4 4 4
10 10 9 10 8 8 8 8 7 6 6 7 7 7 7 7 8 13 14 13 11 7 6 8 9 10 9 7 8 8 6 4 4 5 5 4 4 4 4 3 2 2 1
10 10 9 9 8 8 7 7 7 6 7 7 7 7 7 7 7 7 7 7 9 7 6 6 8 9 7 7 6 5 4 4 4 4 4 3 3 3 4 3 3 3 2
10 10 10 9 8 8 7 7 7 6 8 8 7 7 7 8 9 13 9 7 5 5 5 4 3 3 3 3 3 3 3 3 3 3 2 2 3 3 3 3 3 3 3
10 9 8 8 7 7 7 8 11 11 14 14 13 12 10 12 14 14 14 12 11 8 5 3 3 3 3 3 3 2 2 2 2 2 2 3 3 3 3 3 3 4 4
9 9 8 8 8 8 8 8 10 11 13 14 14 15 14 15 15 14 13 12 10 8 4 3 3 3 3 3 3 3 3 2 2 2 2 2 2 3 3 3 3 4 4
9 10 10 7 7 8 8 8 8 9 9 9 11 14 15 15 14 13 12 9 6 5 3 3 3 3 3 3 3 3 2 2 2 2 2 2 2 3 3 3 4 4 4
9 7 7 7 7 8 8 8 7 8 8 8 8 10 13 13 13 12 10 5 5 4 4 3 3 3 3 3 3 2 2 2 2 2 2 2 2 2 3 3 3 5 4
8 12 11 8 7 7 7 7 7 7 7 7 7 8 8 8 7 7 6 5 5 4 4 3 3 3 3 2 2 2 2 2 2 2 2 2 2 2 3 3 3 3 3
7 9 13 9 7 7 7 7 7 7 7 7 7 9 11 7 6 6 6 5 5 5 4 3 3 3 3 2 2 2 2 2 2 2 2 2 2 2 2 2 3 3 3
7 7 7 7 7 7 7 7 7 7 8 8 8 9 12 7 6 6 6 5 5 4 4 3 3 3 3 2 2 2 2 2 2 2 2 2 2 2 2 2 2 3 3
7 8 8 7 7 10 9 7 7 7 7 7 8 7 7 6 6 6 6 5 5 5 5 4 3 4 4 4 4 3 3 3 3 3 2 2 2 2 2 2 3 3 3
7 7 7 7 7 7 7 7 7 7 7 7 7 7 7 7 7 7 6 5 5 5 5 4 4 5 6 5 5 5 4 4 4 3 3 3 2 2 2 2 2 3 4
6 7 7 7 7 7 7 7 7 7 7 7 7 7 7 7 6 6 6 5 6 5 6 5 5 5 6 7 6 6 6 5 4 3 2 2 3 3 3 3 2 3 3
6 7 7 6 6 6 6 7 7 7 7 7 6 6 6 6 6 6 6 5 6 6 6 5 6 6 7 6 7 7 6 4 3 3 2 2 3 3 3 3 3 3 3
Wind_Direction
321 319 318 316 316 317 315 314 311 308 307 306 300 296 294 290 282 270 268 259 248 252 255 252 257 261 260 261 257 253 256 251 255 271 282 277 254 242 233 231 220 217 223
317 315 315 315 317 316 315 314 312 308 308 307 300 295 290 291 287 277 270 266 252 246 246 246 250 252 250 252 252 251 254 253 249 257 271 267 261 236 221 225 221 229 222
314 313 312 313 315 315 313 313 313 310 309 307 306 296 291 289 287 281 271 261 257 249 243 241 243 242 245 246 250 250 252 256 249 241 251 257 264 237 224 238 236 228 233
312 309 309 309 310 309 309 312 312 312 307 304 303 300 295 292 289 282 278 268 262 256 249 244 242 238 239 239 242 244 247 250 249 233 237 243 250 238 213 218 237 241 245
308 306 305 307 306 308 311 312 311 310 306 302 302 304 301 295 289 284 278 276 267 262 253 248 244 242 243 242 241 236 235 238 242 234 230 236 233 217 222 223 229 230 249
312 305 305 306 306 308 308 308 308 307 304 302 304 303 302 299 299 298 291 281 278 270 265 257 253 248 246 247 245 242 236 233 233 235 234 226 228 232 231 224 216 224 250
316 314 313 310 310 309 309 310 307 304 304 305 304 302 299 302 304 301 294 291 277 270 265 261 259 255 253 243 245 246 243 243 239 235 235 232 227 224 220 222 219 224 242
314 312 313 315 314 313 308 306 303 303 303 303 302 301 299 301 307 308 301 294 281 277 272 263 254 249 248 244 237 237 239 242 240 237 234 235 233 219 215 219 222 225 250
317 316 317 317 314 313 308 305 303 303 301 299 301 300 301 303 305 307 301 288 282 281 279 273 265 249 249 251 246 238 243 250 252 248 246 241 236 223 211 205 207 205 233
318 316 316 315 311 308 305 301 300 300 299 300 298 298 299 301 305 307 303 289 281 282 280 278 276 270 257 250 242 238 241 245 244 249 250 243 231 216 213 209 207 207 219
317 316 315 312 307 303 303 304 303 301 302 301 299 300 300 303 307 306 304 291 280 280 279 280 277 278 271 259 256 246 247 248 240 237 238 233 226 221 217 213 210 206 209
318 316 315 314 311 311 309 309 308 305 303 303 303 305 304 304 305 305 303 297 292 282 277 276 281 282 278 269 262 260 259 257 240 232 228 225 225 221 215 205 205 206 210
319 315 314 315 312 310 309 309 309 307 305 304 305 306 309 310 308 307 307 303 295 288 282 279 284 285 281 274 266 268 259 243 234 232 230 229 227 215 200 187 177 166 148
320 317 318 318 314 312 309 306 305 305 302 303 305 306 307 309 311 310 305 300 297 293 290 287 286 286 278 274 274 270 256 238 231 232 233 231 227 207 197 188 195 187 194
319 318 319 318 316 315 313 307 304 295 298 303 303 303 305 307 308 312 312 307 301 293 298 290 281 281 271 266 257 252 245 234 240 236 224 222 221 213 208 194 193 192 200
319 319 317 316 315 314 313 313 313 310 310 310 309 308 306 306 311 314 315 313 311 306 299 283 278 277 274 272 270 264 250 232 227 223 214 211 215 213 212 204 189 190 196
313 314 314 316 317 315 315 315 317 320 319 318 317 317 316 315 315 316 316 315 315 314 297 285 282 279 277 275 273 272 265 243 223 220 214 209 212 211 201 194 191 192 196
313 312 313 311 314 314 312 312 313 315 319 319 319 319 321 321 321 321 320 319 315 312 301 294 289 286 284 281 275 273 269 252 229 222 218 213 214 214 206 200 199 196 196
314 312 310 309 310 311 311 310 311 311 312 314 318 321 324 325 326 327 327 325 316 308 301 295 294 296 296 290 285 278 266 253 245 230 222 218 213 208 210 206 204 198 195
312 314 317 313 312 313 314 315 315 314 315 316 318 319 324 327 329 328 327 322 318 312 305 297 298 301 302 298 297 296 287 271 251 237 230 222 215 207 204 201 195 190 194
311 313 317 316 312 312 312 313 314 315 315 315 314 315 321 324 321 321 322 317 314 310 307 303 300 302 301 298 298 301 296 280 262 246 239 229 215 207 208 199 185 180 180
309 309 310 310 310 311 311 313 314 313 313 314 315 318 324 326 321 319 320 319 320 316 310 306 305 302 299 295 296 293 292 290 275 250 240 231 216 204 201 194 179 171 172
310 310 310 310 310 313 317 316 314 314 315 315 316 319 322 321 320 321 321 322 323 321 321 320 316 312 319 318 310 296 283 279 275 257 234 222 211 197 189 187 175 166 167
309 308 308 309 311 310 311 313 314 314 315 315 315 316 317 318 318 319 320 320 321 318 319 318 313 310 314 316 310 305 298 296 291 270 238 213 202 191 179 173 174 173 172
310 308 308 308 308 310 311 312 313 315 314 313 313 314 315 316 316 318 319 319 318 316 313 311 307 308 311 313 311 309 308 308 308 293 247 206 191 183 172 168 167 162 164
313 311 310 309 308 308 309 310 312 313 312 309 309 311 312 312 313 314 316 318 317 315 312 311 308 309 310 312 315 316 312 306 305 300 265 203 182 178 167 165 164 162 160
Height
1504 1502 1500 1498 1496 1493 1491 1489 1487 1485 1484 1482 1481 1481 1480 1480 1480 1481 1481 1481 1481 1481 1482 1482 1483 1484 1485 1486 1487 1488 1489 1490 1489 1488 1490 1491 1493 1494 1495 1496 1497 1498 1499
1501 1499 1496 1494 1492 1489 1487 1485 1483 1481 1479 1478 1476 1475 1475 1475 1475 1475 1475 1475 1475 1475 1476 1477 1477 1478 1479 1480 1481 1482 1483 1484 1484 1483 1484 1486 1487 1488 1489 1490 1491 1493 1494
1497 1495 1492 1490 1488 1485 1483 1481 1479 1477 1475 1473 1472 1471 1470 1469 1469 1469 1469 1469 1469 1469 1470 1471 1471 1472 1473 1474 1475 1476 1477 1478 1479 1479 1479 1480 1481 1483 1484 1485 1486 1487 1488
1493 1491 1488 1486 1484 1481 1479 1477 1474 1472 1470 1468 1467 1465 1464 1464 1463 1463 1463 1463 1463 1463 1464 1464 1465 1466 1466 1467 1469 1470 1471 1472 1473 1474 1474 1475 1476 1477 1479 1479 1480 1482 1483
1490 1487 1485 1482 1480 1477 1475 1472 1471 1469 1466 1464 1462 1460 1459 1458 1457 1457 1458 1457 1457 1457 1457 1458 1459 1460 1461 1462 1463 1464 1465 1466 1467 1468 1468 1469 1470 1471 1473 1474 1475 1476 1477
1485 1483 1481 1478 1476 1473 1471 1468 1466 1464 1461 1459 1456 1455 1454 1453 1452 1452 1452 1451 1451 1450 1450 1451 1452 1453 1455 1456 1457 1458 1459 1460 1460 1461 1462 1463 1464 1466 1467 1469 1470 1471 1471
1482 1479 1477 1474 1471 1469 1466 1464 1462 1459 1457 1454 1452 1450 1449 1448 1448 1447 1446 1446 1445 1445 1445 1445 1446 1447 1448 1449 1450 1451 1452 1453 1455 1456 1456 1456 1458 1460 1462 1463 1464 1465 1466
1478 1475 1473 1470 1467 1464 1462 1459 1457 1455 1452 1450 1448 1446 1444 1443 1443 1442 1441 1440 1439 1439 1439 1439 1440 1440 1441 1442 1443 1444 1444 1446 1447 1449 1450 1451 1453 1454 1456 1457 1458 1460 1461
1474 1471 1468 1466 1463 1460 1457 1454 1452 1450 1448 1446 1443 1442 1440 1438 1437 1437 1436 1434 1433 1433 1433 1433 1434 1434 1435 1436 1437 1437 1438 1439 1441 1442 1443 1445 1446 1448 1449 1451 1452 1454 1454
1471 1468 1465 1462 1459 1456 1453 1451 1448 1446 1443 1441 1439 1437 1435 1433 1432 1432 1431 1430 1428 1428 1427 1427 1428 1428 1429 1430 1431 1431 1431 1432 1434 1435 1436 1438 1439 1440 1442 1444 1445 1447 1448
1467 1464 1461 1459 1456 1452 1449 1447 1444 1442 1439 1437 1435 1433 1431 1429 1428 1427 1426 1425 1424 1423 1422 1421 1421 1422 1423 1424 1425 1426 1426 1427 1428 1429 1430 1431 1432 1434 1435 1437 1439 1441 1442
1464 1461 1457 1454 1451 1448 1445 1442 1440 1438 1435 1433 1430 1428 1427 1425 1424 1422 1422 1421 1420 1419 1417 1416 1416 1417 1418 1419 1419 1419 1420 1421 1422 1422 1423 1424 1426 1427 1429 1431 1433 1435 1436
1461 1457 1454 1450 1447 1444 1441 1439 1436 1434 1432 1430 1427 1425 1422 1421 1420 1418 1417 1416 1415 1414 1413 1412 1412 1412 1412 1412 1413 1414 1414 1415 1416 1416 1417 1418 1420 1421 1423 1425 1427 1428 1430
1458 1454 1450 1447 1443 1441 1438 1436 1433 1431 1429 1427 1424 1422 1419 1417 1416 1414 1413 1411 1410 1409 1408 1407 1407 1407 1407 1407 1407 1407 1408 1409 1410 1411 1411 1413 1414 1416 1417 1419 1420 1422 1424
1455 1451 1447 1444 1440 1437 1435 1433 1430 1428 1427 1425 1422 1420 1417 1414 1413 1412 1410 1408 1406 1405 1404 1403 1403 1402 1402 1401 1402 1402 1403 1404 1405 1405 1406 1407 1409 1410 1411 1413 1415 1417 1419
1451 1448 1444 1441 1438 1435 1431 1429 1427 1425 1423 1421 1419 1417 1414 1412 1410 1408 1406 1404 1403 1402 1401 1399 1399 1398 1398 1397 1397 1397 1398 1399 1399 1400 1401 1402 1403 1404 1406 1408 1410 1411 1413
1449 1445 1442 1438 1435 1432 1429 1426 1422 1419 1418 1416 1415 1413 1410 1408 1406 1404 1402 1400 1399 1398 1397 1395 1395 1395 1394 1394 1394 1394 1394 1394 1395 1396 1396 1397 1398 1400 1401 1402 1404 1406 1408
1447 1444 1440 1437 1433 1430 1427 1424 1421 1417 1414 1411 1410 1408 1406 1404 1402 1400 1398 1397 1394 1394 1393 1392 1391 1391 1391 1391 1391 1390 1390 1391 1391 1391 1392 1393 1394 1395 1396 1397 1399 1401 1403
1444 1441 1438 1435 1432 1428 1425 1422 1419 1416 1413 1410 1406 1404 1403 1400 1398 1396 1395 1393 1391 1390 1390 1389 1388 1388 1388 1388 1388 1388 1387 1387 1387 1388 1388 1389 1390 1391 1392 1393 1394 1396 1399
1442 1439 1436 1432 1429 1426 1423 1420 1417 1414 1411 1408 1405 1402 1400 1398 1395 1393 1391 1390 1389 1388 1387 1386 1386 1385 1385 1385 1384 1384 1384 1384 1384 1384 1385 1385 1386 1387 1388 1389 1390 1392 1394
1439 1436 1433 1430 1427 1424 1421 1418 1415 1412 1409 1406 1404 1402 1400 1397 1394 1392 1390 1388 1386 1385 1385 1384 1383 1383 1382 1382 1382 1381 1381 1381 1381 1381 1382 1382 1383 1384 1385 1386 1387 1389 1390
1437 1434 1431 1428 1425 1422 1419 1416 1413 1410 1407 1404 1402 1399 1397 1395 1392 1390 1388 1386 1385 1384 1383 1382 1381 1381 1380 1380 1379 1379 1378 1378 1378 1379 1379 1379 1380 1381 1382 1383 1384 1386 1387
1435 1431 1428 1425 1423 1420 1417 1414 1411 1408 1405 1402 1400 1397 1395 1393 1391 1388 1386 1385 1383 1382 1381 1380 1379 1378 1378 1377 1377 1377 1376 1376 1376 1376 1376 1377 1377 1378 1380 1381 1382 1383 1385
1432 1429 1426 1423 1420 1417 1414 1411 1408 1405 1403 1400 1397 1395 1393 1391 1389 1387 1385 1383 1381 1380 1379 1378 1377 1376 1375 1375 1374 1374 1374 1374 1374 1374 1374 1374 1375 1376 1377 1378 1380 1381 1383
1429 1426 1423 1420 1417 1414 1411 1408 1405 1403 1400 1398 1395 1393 1391 1389 1387 1385 1383 1381 1379 1378 1377 1376 1374 1374 1373 1372 1372 1371 1371 1371 1371 1371 1372 1373 1373 1374 1375 1376 1378 1379 1380
1426 1423 1420 1417 1414 1411 1409 1406 1403 1400 1398 1396 1393 1391 1389 1386 1384 1382 1381 1379 1377 1376 1374 1373 1372 1371 1370 1369 1369 1369 1369 1369 1369 1369 1370 1370 1371 1372 1373 1374 1375 1377 1378